Regional Weather Roundup
Issued by NWS

Home | Current Version | Previous Version | Text Only | Print | Product List | Glossary Off
Versions: 1 2 3 4 5 6 7 8 9 10 11 12 13 14 15 16 17 18 19 20 21 22 23 24 25 26 27 28 29 30 31 32 33 34 35 36 37 38 39 40 41 42 43 44 45 46 47 48 49 50

000
ASUS43 KLSX 312107
RWRMO

WEATHER SUMMARY FOR MISSOURI
NATIONAL WEATHER SERVICE SPRINGFIELD MO
400 PM CDT THU JUL 31 2014

NOTE: "FAIR" INDICATES FEW OR NO CLOUDS BELOW 12,000 FEET WITH NO
       SIGNIFICANT WEATHER AND/OR OBSTRUCTIONS TO VISIBILITY.
       CURRENT SKY AND/OR WEATHER CONDITIONS ARE NOT AVAILABLE FOR
       CHILLICOTHE AND FARMINGTON.

MOZ001>031-035>038-043-044-053-054-312200-
...NORTHERN AND WESTERN MISSOURI...

CITY           SKY/WX    TMP DP  RH WIND       PRES   REMARKS
KANSAS CTY INT PTSUNNY   82  55  39 W6        30.08F
KANSAS C DTWN  SUNNY     84  53  34 CALM      30.06F
LEE`S SUMMIT   MOSUNNY   83  54  36 E7        30.08F
ST JOSEPH      SUNNY     82  57  42 SW5       30.07F
CHILLICOTHE      N/A     84  56  38 VRB6      30.08F
KIRKSVILLE     MOSUNNY   83  55  38 CALM      30.09S

$$
MOZ066>068-077>081-088>096-101>105-312200-
...SOUTHWEST MISSOURI...

CITY           SKY/WX    TMP DP  RH WIND       PRES   REMARKS
SPRINGFIELD    PTSUNNY   79  61  53 SE7       30.07F
JOPLIN         PTSUNNY   80  63  55 NE6       30.06F

$$
MOZ032>034-039>042-045>050-055>058-069>072-312200-
...CENTRAL MISSOURI...

CITY           SKY/WX    TMP DP  RH WIND       PRES   REMARKS
COLUMBIA       MOSUNNY   85  54  34 NW8       30.06F
JEFFERSON CITY MOSUNNY   84  52  33 CALM      30.04F
ROLLA          MOSUNNY   82  52  35 CALM      30.05F
SEDALIA        MOSUNNY   84  56  38 E5        30.07F
WHITEMAN AFB   MOSUNNY   82  44  25 VRB1      30.07F
OSAGE BEACH      N/A     84  54  34 CALM      30.05F

$$
MOZ051-052-059>065-312200-
...EAST CENTRAL MISSOURI...

CITY           SKY/WX    TMP DP  RH WIND       PRES   REMARKS
ST LOUIS INTL  MOSUNNY   85  59  41 VRB6      30.06F
SPIRIT OF STL  MOSUNNY   87  52  29 VRB3      30.04F
ST CHARLES     MOSUNNY   85  55  35 CALM      30.05F

$$
MOZ072>076-082>087-097>100-106>115-312200-
...SOUTH CENTRAL AND SOUTHEAST MISSOURI...

CITY           SKY/WX    TMP DP  RH WIND       PRES   REMARKS
CAPE GIRARDEAU MOSUNNY   79  65  62 SW10      30.08F
FARMINGTON     PTSUNNY   82  57  42 SE6       30.09F
POPLAR BLUFF   CLOUDY    76  64  66 S8        30.07F
WEST PLAINS    CLOUDY    76  64  66 S8        30.10F

$$



USA.gov is the U.S. government's official web portal to all federal, state and local government web resources and services.